Regional Weather Roundup
Issued by NWS

Home | Current Version | Previous Version | Text Only | Print | Product List | Glossary Off
Versions: 1 2 3 4 5 6 7 8 9 10 11 12 13 14 15 16 17 18 19 20 21 22 23 24 25 26 27 28 29 30 31 32 33 34 35 36 37 38 39 40 41 42 43 44 45 46 47 48 49 50

000
ASUS43 KMKX 291807
RWRWI

WISCONSIN REGIONAL WEATHER ROUNDUP
NATIONAL WEATHER SERVICE MILWAUKEE/SULLIVAN WI
100 PM CDT FRI MAY 29 2015

NOTE: "FAIR" INDICATES FEW OR NO CLOUDS BELOW 12,000 FEET WITH NO
SIGNIFICANT WEATHER AND/OR OBSTRUCTIONS TO VISIBILITY.

WIZ001-002-006>008-014>016-023>028-291900-
NORTHWEST WISCONSIN

CITY           SKY/WX    TMP DP  RH WIND       PRES   REMARKS
SUPERIOR ARPT  CLOUDY    68  59  72 NW9       29.90R
ASHLAND        CLOUDY    71  63  75 VRB5      29.88S
6HR MIN TEMP:  61; 6HR MAX TEMP:  71; 6HR PCP:  0.02;

HAYWARD        LGT RAIN  68  62  81 NW5       29.91R
6HR MIN TEMP:  61; 6HR MAX TEMP:  68; 6HR PCP:  0.02;

SIREN          RAIN      67  63  89 N8        29.90S
CUMBERLAND     CLOUDY    66  63  88 CALM      29.91S
RICE LAKE      CLOUDY    68  63  84 CALM      29.91S
CHETEK         CLOUDY    69  65  86 CALM      29.91R
LADYSMITH      CLOUDY    69  64  83 SW7       29.93S
EAU CLAIRE     NOT AVBL
MENOMONIE      CLOUDY    70  65  84 S7        29.90S
NEW RICHMOND   CLOUDY    70  66  86 SW5       29.90S
OSCEOLA        LGT RAIN  70  69  95 SW8       29.92R
$$

WIZ003>005-009-010-017-018-291900-
NORTH CENTRAL WISCONSIN

CITY           SKY/WX    TMP DP  RH WIND       PRES   REMARKS
MANITOWISH WTR HVY RAIN  64  64  99 W8        29.91R
ARBOR VITAE    CLOUDY    66  63  89 W6        29.91S
WOODRUFF       CLOUDY    66  63  89 W6        29.91S
RHINELANDER    CLOUDY    70  62  76 SW8G21    29.92F
6HR MIN TEMP:  61; 6HR MAX TEMP:  72; 6HR PCP: TRACE;

EAGLE RIVER    CLOUDY    69  58  66 SW8G16    29.91S
LAND O LAKES   RAIN      69  60  72 W10G16    29.91S
PHILLIPS       LGT RAIN  64  63  97 SW5       29.92R
TOMAHAWK       CLOUDY    67  61  80 CALM      29.93S
MEDFORD        CLOUDY    67  63  85 SW8       29.93S
MERRILL        CLOUDY    72  64  75 SW10      29.93F
$$

WIZ029-030-035-036-043>047-291900-
CENTRAL WISCONSIN

CITY           SKY/WX    TMP DP  RH WIND       PRES   REMARKS
WAUSAU         CLOUDY    75  62  64 SW9       29.91F
6HR MIN TEMP:  62; 6HR MAX TEMP:  75;

MOSINEE        PTSUNNY   75  64  69 SW9G16    29.93F
MARSHFIELD     CLOUDY    75  62  64 W12       29.92F
6HR MIN TEMP:  62; 6HR MAX TEMP:  75;

STEVENS POINT  PTSUNNY   74  61  63 S13G18    29.93F
WAUPACA        CLOUDY    76  65  68 S8        29.95F
WAUTOMA        NOT AVBL
WISC RAPIDS    PTSUNNY   77  63  61 S14       29.93F
6HR MIN TEMP:  63; 6HR MAX TEMP:  77;

CAMP DOUGLAS   NOT AVBL
$$

WIZ011>013-019>022-031-037>040-048>050-291900-
NORTHEAST WISCONSIN

CITY           SKY/WX    TMP DP  RH WIND       PRES   REMARKS
ANTIGO         CLOUDY    72  64  73 SW15      29.93F
SHAWANO        CLOUDY    74  64  72 S7        29.94F
OCONTO         CLOUDY    73  65  74 SW9       29.93F
STURGEON BAY   CLOUDY    68  61  77 S14       29.98F
6HR MIN TEMP:  57; 6HR MAX TEMP:  68;

GREEN BAY      CLOUDY    76  64  66 SW15      29.94F
6HR MIN TEMP:  65; 6HR MAX TEMP:  77; 6HR PCP:  0.01;

MANITOWOC      NOT AVBL
APPLETON       PTSUNNY   73  63  68 S14       29.96F
CLINTONVILLE   CLOUDY    73  63  68 SW10      29.94F
OSHKOSH        CLOUDY    77  64  64 SW13      29.94F
6HR MIN TEMP:  64; 6HR MAX TEMP:  77; 6HR PCP:  0.03;

$$

WIZ032>034-041-042-053>061-291900-
SOUTHWEST WISCONSIN

CITY           SKY/WX    TMP DP  RH WIND       PRES   REMARKS
LA CROSSE      CLOUDY    78  64  61 S8        29.90F HX  80
6HR MIN TEMP:  67; 6HR MAX TEMP:  78;

SPARTA         PTSUNNY   77  61  58 SW8       29.93S
VIROQUA        CLOUDY    75  59  57 S12G18    29.95S
BOSCOBEL       CLOUDY    77  62  59 SW5       29.92F
6HR MIN TEMP:  65; 6HR MAX TEMP:  78;

PRAIRIE DU CHI CLOUDY    76  62  62 S7        29.92F
PLATTEVILLE    CLOUDY    74  68  81 SW10      29.95S
$$

WIZ056-057-062-063-064-067-068-291900-
SOUTH CENTRAL WISCONSIN

CITY           SKY/WX    TMP DP  RH WIND       PRES   REMARKS
REEDSBURG      CLOUDY    74  65  72 SW9       29.94S
BARABOO/DELLS  CLOUDY    73  64  74 S3        29.95S
LONE ROCK      NOT AVBL
MINERAL POINT  CLOUDY    75  68  78 S9        29.95F
MADISON        CLOUDY    76  63  64 S15       29.94F
6HR MIN TEMP:  63; 6HR MAX TEMP:  78; 6HR PCP:  0.02;

MIDDLETON      CLOUDY    78  65  63 S9        29.94F HX  80
WATERTOWN      CLOUDY   N/A N/A N/A S9        29.95F
MONROE         CLOUDY    73  66  78 S14       29.95F
JANESVILLE     CLOUDY    75  72  88 S7        29.95F
$$

WIZ051-052-058>065-066-070>072-291900-
SOUTHEAST WISCONSIN

CITY           SKY/WX    TMP DP  RH WIND       PRES   REMARKS
MILWAUKEE      RAIN      72  65  78 S18       29.99R
6HR MIN TEMP:  65; 6HR MAX TEMP:  80; 6HR PCP: TRACE;

WAUKESHA       PTSUNNY   72  61  68 SE12G22   29.99F
MILWAUKEE/TIMM LGT RAIN  79  61  53 S13G18    29.98F HX  80
RACINE         LGT RAIN  70  64  83 S7        30.00F FOG
6HR MIN TEMP:  66; 6HR MAX TEMP:  74; 6HR PCP:  0.05;

BURLINGTON     PTSUNNY   75  66  73 SE14      29.98F
KENOSHA        CLOUDY    77  67  71 S8        29.98F
6HR MIN TEMP:  67; 6HR MAX TEMP:  79; 6HR PCP:  0.01;

FOND DU LAC    CLOUDY    78  66  66 SW15      29.94F HX  80
6HR MIN TEMP:  65; 6HR MAX TEMP:  79; 6HR PCP:  0.03;

SHEBOYGAN      PTSUNNY   70  62  76 S8        29.97F
6HR MIN TEMP:  60; 6HR MAX TEMP:  74; 6HR PCP:  0.10;

WEST BEND      CLOUDY    77  63  61 SE7       29.97F
JUNEAU         CLOUDY    77  65  66 S14G20    29.96F
$$

LSZ147-162-291900-
LAKE SUPERIOR

STATION/POSITION TIME  TEMP    WIND        PRES    WAVE
                       AIR SEA DIR/SP/G            HT/PER
                 (UTC) (F)     (DEG/KT/KT) (MB)    (FT/S)
W MID LAKE BUOY  1650   48 37  220/  8/ 12   N/A     1
DEVILS ISLAND    1700   47     200/  9/ 11   N/A
PORT WING        1640   46     320/  6/  7   N/A
SAXON HARBOR     1740   69     220/  4/  9   N/A
$$

LMZ867-665-643>646-291900-
LAKE MICHIGAN

STATION/POSITION TIME  TEMP    WIND        PRES    WAVE
                       AIR SEA DIR/SP/G            HT/PER
                 (UTC) (F)     (DEG/KT/KT) (MB)    (FT/S)
CHAMBERS ISLAND  1700   63     150/  4/  8   N/A
N MID LAKE BUOY  1650   42 37  190/  8/ 10   N/A     1/ 3
NORTHPORT PIER   1600   52     160/  9/ 13   N/A
SISTER BAY       1618   56     140/ 12/ 16   N/A
ALGOMA LAKESHORE 1653          210/  4/  5   N/A
KEWAUNEE LAKESHO 1700   49     180/ 11/ 13   N/A
SHEBOYGAN LAKESH 1700   52     160/ 15/ 16   N/A
PORT WASHINGTON  1700   57     160/  3/  4   N/A
ATWATER BUOY     1700   56     150/ 12/ 14   N/A
MILWAUKEE LAKESH 1700   56     130/ 12/ 14   N/A
S MID LAKE BUOY  1650   47 38  170/ 10/ 10   N/A     1
KENOSHA   LAKESH 1700   61     180/ 10/ 13   N/A
$$

TC  - TEMPERATURE IN CELSIUS
VSB - VISIBILITY IN STATUTE MILES
WCI - WIND CHILL INDEX
HX  - HEAT INDEX



USA.gov is the U.S. government's official web portal to all federal, state and local government web resources and services.